EHI
0 0 0 0 0 0 0 0 0 0 0 0 0 0 0 0 0 0 0 0 0 0 0 0 0 0 0 0 0 0 0 0 0 0 0 0 0 0 0 0 0 0 0
0 0 0 0 0 0 0 0 0 0 0 0 0 0 0 0 0 0 0 0 0 0 0 0 0 0 0 0 0 0 0 0 0 0 0 0 0 0 0 0 0 0 0
0 0 0 0 0 0 0 0 0 0 0 0 0 0 0 0 0 0 0 0 0 0 0 0 0 0 0 0 0 0 0 0 0 0 0 0 0 0 0 0 0 0 0
0 0 0 0 0 0 0 0 0 0 0 0 0 0 0 0 0 0 0 0 0 0 0 0 0 0 0 0 0 0 0 0 0 0 0 0 0 0 0 0 0 0 0
0 0 0 0 0 0 0 0 0 0 0 0 0 0 0 0 0 0 0 0 0 0 0 0 0 0 0 0 0 0 0 0 0 0 0 0 0 0 0 0 0 0 0
0 0 0 0 0 0 0 0 0 0 0 0 0 0 0 0 0 0 0 0 0 0 0 0 0 0 0 0 0 0 0 0 0 0 0 0 0 0 0 0 0 0 0
0 0 0 0 0 0 0 0 0 0 0 0 0 0 0 0 0 0 0 0 0 0 0 0 0 0 0 0 0 0 0 0 0 0 0 0 0 0 0 0 0 0 0
0 0 0 0 0 0 0 0 0 0 0 0 0 0 0 0 0 0 0 0 0 0 0 0 0 0 0 0 0 0 0 0 0 0 0 0 0 0 0 0 0 0 0
0 0 0 0 0 0 0 0 0 0 0 0 0 0 0 0 0 0 0 0 0 0 0 0 0 0 0 0 0 0 0 0 0 0 0 0 0 0 0 0 0 0 0
0 0 0 0 0 0 0 0 0 0 0 0 0 0 0 0 0 0 0 0 0 0 0 0 0 0 0 0 0 0 0 0 0 0 0 0 0 0 0 0 0 0 0
0 0 0 0 0 0 0 0 0 0 0 0 0 0 0 0 0 0 0 0 0 0 0 0 0 0 0 0 0 0 0 0 0 0 0 0 0 0 0 0 0 0 0
0 0 0 0 0 0 0 0 0 0 0 0 0 0 0 0 0 0 0 0 0 0 0 0 0 0 0 0 0 0 0 0 0 0 0 0 0 0 0 0 0 0 0
0 0 0 0 0 0 0 0 0 0 0 0 0 0 0 0 0 0 0 0 0 0 0 0 0 0 0 0 0 0 0 0 0 0 0 0 0 0 0 0 0 0 0
0 0 0 0 0 0 0 0 0 0 0 0 0 0 0 0 0 0 0 0 0 0 0 0 0 0 0 0 0 0 0 0 0 0 0 0 0 0 0 0 0 0 0
0 0 0 0 0 0 0 0 0 0 0 0 0 0 0 0 0 0 0 0 0 0 0 0 0 0 0 0 0 0 0 0 0 0 0 0 0 0 0 0 0 0 0
0 0 0 0 0 0 0 0 0 0 0 0 0 0 0 0 0 0 0 0 0 0 0 0 0 0 0 0 0 0 0 0 0 0 0 0 0 0 0 0 0 0 0
0 0 0 0 0 0 0 0 0 0 0 0 0 0 0 0 0 0 0 0 0 0 0 0 0 0 0 0 0 0 0 0 0 0 0 0 0 0 0 0 0 0 0
0 0 0 0 0 0 0 0 0 0 0 0 0 0 0 0 0 0 0 0 0 0 0 0 0 0 0 0 0 0 0 0 0 0 0 0 0 0 0 0 0 0 0
0 0 0 0 0 0 0 0 0 0 0 0 0 0 0 0 0 0 0 0 0 0 0 0 0 0 0 0 0 0 0 0 0 0 0 0 0 0 0 0 0 0 0
0 0 0 0 0 0 0 0 0 0 0 0 0 0 0 0 0 0 0 0 0 0 0 0 0 0 0 0 0 0 0 0 0 0 0 0 0 0 0 0 0 0 0
0 0 0 0 0 0 0 0 0 0 0 0 0 0 0 0 0 0 0 0 0 0 0 0 0 0 0 0 0 0 0 0 0 0 0 0 0 0 0 0 0 0 0
0 0 0 0 0 0 0 0 0 0 0 0 0 0 0 0 0 0 0 0 0 0 0 0 0 0 0 0 0 0 0 0 0 0 0 0 0 0 0 0 0 0 0
0 0 0 0 0 0 0 0 0 0 0 0 0 0 0 0 0 0 0 0 0 0 0 0 0 0 0 0 0 0 0 0 0 0 0 0 0 0 0 0 0 0 0
0 0 0 0 0 0 0 0 0 0 0 0 0 0 0 0 0 0 0 0 0 0 0 0 0 0 0 0 0 0 0 0 0 0 0 0 0 0 0 0 0 0 0
0 0 0 0 0 0 0 0 0 0 0 0 0 0 0 0 0 0 0 0 0 0 0 0 0 0 0 0 0 0 0 0 0 0 0 0 0 0 0 0 0 0 0
0 0 0 0 0 0 0 0 0 0 0 0 0 0 0 0 0 0 0 0 0 0 0 0 0 0 0 0 0 0 0 0 0 0 0 0 0 0 0 0 0 0 0
Wind_Speed
4 3 3 3 3 3 3 3 4 5 5 5 5 6 6 7 6 6 5 15 18 19 20 20 20 20 20 20 19 19 19 19 19 19 18 18 17 17 16 16 15 15 14
4 4 3 3 4 4 4 4 5 5 4 4 5 6 6 6 6 7 6 9 18 21 22 22 22 22 22 21 21 21 21 21 21 21 21 21 20 20 19 19 18 17 17
4 4 3 3 4 4 4 3 4 3 4 4 5 6 5 6 6 7 7 6 8 16 22 23 24 23 23 23 23 22 22 23 23 23 23 23 22 22 22 21 21 20 19
4 3 3 3 3 2 2 2 3 3 3 4 4 5 5 5 7 7 7 7 6 7 13 22 23 24 24 24 23 23 23 23 23 24 24 24 24 24 24 24 23 23 22
2 2 2 3 2 2 2 2 2 2 3 4 5 5 5 5 7 8 8 9 8 7 7 14 21 23 23 24 24 24 23 23 24 24 25 25 25 26 26 26 25 25 25
1 1 2 2 2 1 2 2 3 3 3 4 5 6 5 6 6 7 8 7 7 7 7 8 8 12 20 22 23 23 24 24 24 24 24 25 26 26 27 27 27 27 27
0 1 1 1 1 2 3 3 2 3 3 2 3 5 5 6 6 6 5 5 6 7 6 6 5 5 7 17 21 23 24 24 24 24 24 24 25 26 27 27 28 28 29
1 1 1 2 2 2 3 3 2 2 2 1 1 3 5 5 4 4 4 5 6 4 5 5 5 5 5 5 12 22 24 25 25 25 24 24 25 25 26 27 28 29 29
2 1 2 2 2 2 3 3 2 3 3 2 2 2 3 5 5 4 4 4 4 4 4 5 6 6 6 5 7 14 22 24 25 26 26 25 25 25 26 26 27 28 29
2 2 2 2 2 2 3 3 3 2 3 3 3 3 5 4 4 6 3 4 5 6 6 6 6 7 7 6 9 17 22 24 25 26 26 26 26 26 26 26 26 27 28
3 2 2 1 2 2 3 4 4 3 3 4 4 3 4 4 5 6 8 5 4 5 6 7 7 7 7 7 6 12 21 23 24 25 26 27 27 27 26 25 25 26 27
2 3 2 2 2 2 3 4 4 5 4 5 4 4 4 4 4 5 8 8 7 5 6 6 7 7 7 7 10 18 21 22 23 24 25 25 26 27 26 26 25 25 26
2 3 2 2 3 3 4 4 4 5 5 5 5 5 5 6 5 5 8 10 9 6 5 5 6 6 7 6 8 19 20 23 24 24 25 25 25 26 26 26 26 26 26
3 3 3 3 4 4 4 4 4 5 4 5 6 6 5 5 5 5 6 8 11 8 5 6 4 6 6 6 10 19 12 22 24 24 25 25 25 25 26 26 26 25 25
3 3 3 4 4 5 5 5 4 5 5 5 6 6 5 5 5 5 5 5 7 13 10 5 4 5 6 6 13 10 8 18 24 26 26 26 26 26 26 26 25 25 25
3 4 4 5 5 5 5 5 5 6 6 6 5 6 6 5 5 5 5 5 5 9 13 5 5 6 8 10 15 11 9 23 25 26 26 26 26 26 25 25 25 25 25
4 4 5 5 6 6 6 5 6 7 7 7 7 7 8 7 6 5 5 5 6 7 13 11 6 6 8 10 11 9 9 10 11 23 26 26 26 25 25 25 25 25 25
5 5 5 6 6 7 6 7 8 8 8 8 8 8 9 7 7 6 6 7 7 7 11 16 9 7 9 10 10 10 10 10 8 18 24 25 25 25 25 25 24 24 24
5 5 5 6 7 7 7 7 8 8 8 9 9 9 9 8 9 7 8 8 8 9 9 12 12 8 7 8 9 9 11 9 10 14 20 21 22 23 23 23 23 23 23
6 6 6 7 7 8 8 8 8 8 9 9 9 9 9 9 10 9 9 9 9 9 9 10 11 9 7 7 7 8 8 6 8 9 13 16 19 22 23 23 22 21 21
7 7 7 7 7 7 7 8 8 8 8 9 9 9 9 13 16 14 11 9 8 8 8 9 10 9 8 6 7 6 9 8 8 7 7 8 8 7 9 15 19 20 21
7 7 7 8 8 8 15 20 15 8 8 8 9 9 9 12 15 21 23 22 19 13 10 10 10 11 11 9 8 8 9 9 8 4 5 7 5 7 7 6 15 20 21
7 7 8 8 9 12 20 21 21 13 8 8 8 8 9 10 16 9 16 21 19 23 22 15 13 13 12 10 10 11 10 11 11 5 5 8 6 8 7 9 19 20 20
7 7 8 9 9 12 20 22 22 12 8 8 8 9 10 10 10 13 11 11 11 12 15 12 11 12 12 11 11 12 12 11 10 7 6 8 6 7 7 6 15 19 19
7 8 8 9 10 12 20 22 22 8 7 9 9 9 10 10 17 23 15 11 12 10 16 21 22 21 23 23 17 8 7 8 9 5 5 5 5 5 5 6 9 16 17
8 8 9 8 10 11 18 22 22 7 7 8 8 9 16 17 20 23 13 10 13 11 10 11 13 15 13 13 18 10 6 8 7 5 4 4 4 3 4 3 3 4 6
Wind_Direction
192 198 207 211 218 218 221 231 238 246 249 252 249 245 246 245 247 246 254 263 271 277 280 281 280 279 277 275 272 270 268 267 265 263 261 259 259 258 257 256 255 253 252
188 195 209 215 222 220 221 224 231 237 242 247 254 250 247 247 247 248 246 261 269 275 278 279 280 279 278 276 275 274 271 269 266 264 263 261 258 256 255 254 253 252 252
195 199 209 219 226 223 224 230 240 240 249 252 257 258 256 252 253 254 254 250 260 270 275 278 279 279 279 278 277 276 275 273 270 268 265 263 261 258 255 253 252 251 250
200 202 215 231 236 230 227 237 245 254 259 260 263 266 263 262 261 259 258 256 251 258 269 274 278 279 279 279 279 278 277 276 274 272 269 265 262 260 257 254 252 250 248
208 202 221 237 238 235 240 250 251 244 264 270 269 267 260 259 261 264 263 261 257 255 254 270 275 278 279 280 280 280 279 278 278 276 274 272 268 263 260 257 254 251 248
219 212 233 249 248 256 268 267 269 265 258 267 284 283 272 264 261 259 264 268 266 262 260 261 269 276 278 280 282 282 282 280 279 278 277 275 273 270 265 260 257 254 250
268 228 253 276 274 261 266 272 276 284 281 280 303 299 282 268 265 262 261 268 273 274 273 268 265 263 277 282 285 286 286 284 283 281 279 278 276 274 271 267 261 257 254
304 271 252 263 266 270 287 287 273 281 280 267 271 313 315 320 316 281 275 266 270 281 285 286 283 273 268 272 279 286 288 287 285 283 281 279 277 276 274 272 269 263 258
317 300 273 262 266 253 267 274 263 250 274 282 201 224 285 287 304 279 267 266 277 286 290 293 284 281 277 272 275 286 289 289 287 285 282 280 277 275 274 274 272 270 266
329 319 302 284 276 269 269 273 264 246 247 273 270 226 229 248 280 300 289 283 282 278 273 276 278 277 274 272 275 285 290 291 288 286 283 280 278 276 274 273 273 273 271
328 325 315 306 294 283 278 279 282 268 243 248 253 255 257 253 234 259 284 281 276 260 260 262 265 266 266 265 266 276 289 291 291 289 286 283 281 278 276 275 275 275 275
318 321 317 309 294 284 278 275 272 272 262 257 255 247 246 252 254 252 275 286 282 270 257 255 257 259 260 260 264 282 289 291 292 291 289 287 284 281 278 276 275 276 276
299 300 307 300 292 284 282 280 279 277 269 264 260 256 249 249 251 259 275 287 287 280 259 253 251 256 262 258 264 279 285 289 290 290 289 288 286 283 279 276 274 273 274
263 278 291 290 289 291 291 287 281 276 273 267 270 267 263 261 255 254 262 286 296 289 263 258 258 255 263 262 266 280 281 285 288 289 288 287 287 285 281 277 274 272 272
269 284 290 290 289 288 286 286 277 277 277 268 267 268 264 263 260 258 258 258 279 296 293 267 266 260 262 264 273 276 264 278 286 287 286 285 283 283 281 277 275 273 271
276 289 290 288 288 287 285 282 278 274 274 271 265 267 266 265 263 259 256 256 252 275 287 278 269 266 270 279 283 283 274 284 288 288 287 285 283 282 281 278 275 273 271
280 283 284 287 287 287 284 280 276 277 274 274 273 271 269 268 265 262 258 258 260 264 283 288 268 266 264 269 277 273 272 271 275 281 283 283 282 281 280 278 276 273 271
278 279 282 284 284 284 281 277 278 280 274 275 275 272 272 273 267 264 262 263 265 264 274 287 287 275 266 266 268 268 274 275 268 278 281 282 282 281 280 278 276 274 272
279 281 280 278 279 279 278 274 271 272 270 269 269 268 270 270 272 269 266 268 268 271 268 278 286 281 274 272 273 272 271 272 273 277 280 281 282 282 282 280 278 276 273
274 276 275 273 274 277 277 275 272 270 269 267 264 262 265 265 268 270 271 268 268 270 270 275 283 285 280 271 266 272 276 264 267 272 276 278 280 282 282 283 281 279 278
270 270 275 276 276 278 275 275 271 267 266 268 267 263 262 270 276 282 283 275 270 273 277 281 284 287 285 283 275 272 278 277 267 259 262 266 270 269 273 278 281 280 278
272 273 272 274 277 281 293 298 297 280 269 268 271 269 269 278 284 289 292 293 290 286 283 281 285 284 285 281 279 277 280 282 281 240 246 261 252 260 259 255 268 273 274
272 274 273 272 272 278 292 298 299 296 277 270 269 271 277 278 292 283 286 289 288 287 286 283 282 281 281 279 278 279 274 273 274 263 255 270 256 260 258 264 272 273 273
268 270 272 271 273 279 293 299 300 295 277 270 266 265 268 273 275 282 273 272 270 273 276 277 268 268 270 269 263 268 274 275 269 258 245 266 260 258 262 257 268 271 272
272 270 270 272 273 280 292 299 300 285 274 271 267 265 270 268 278 290 289 281 280 276 282 283 281 282 283 288 288 281 275 278 279 264 225 247 260 263 261 256 261 267 270
272 275 276 272 271 275 288 297 300 285 277 276 271 265 277 283 287 292 289 283 285 283 279 281 283 284 285 284 288 281 272 274 277 273 227 230 253 264 276 261 259 270 276